GFSWCAN_250_rhum_045.txt.gz
RH
12 9 8 9 8 8 6 7 8 7 11 5 4 4 4 6 8 10 9 10 11 14 15 16 20 22 25 27 26 31 39 47 54 58 58 53 60 79 88 94 96 94 100 91 84 74 89 99 100 100 100 100 100 100
11 8 8 9 7 8 6 8 8 7 11 5 4 4 4 7 10 11 11 12 15 18 26 32 33 34 37 46 57 60 65 58 53 51 43 43 51 82 82 93 100 98 100 97 81 76 97 100 98 90 99 100 100 100
10 8 9 8 7 8 6 8 8 8 9 4 4 4 4 8 11 12 13 14 18 26 37 49 52 68 69 57 64 68 55 54 51 32 28 22 25 40 59 58 100 100 100 98 90 100 100 100 100 100 100 100 100 100
9 8 8 8 8 8 7 8 8 10 6 4 4 4 4 8 12 12 14 17 25 37 55 69 70 70 67 75 69 66 56 46 41 37 41 45 58 67 71 87 100 100 99 100 96 100 94 93 99 98 100 100 100 100
9 9 8 8 8 8 7 9 8 11 5 3 4 4 5 8 12 15 18 27 42 54 72 71 76 76 78 72 75 62 45 51 47 55 64 70 82 89 100 100 100 100 94 100 100 92 90 89 95 97 97 100 100 99
10 9 8 8 9 10 8 9 8 10 5 3 4 4 6 10 14 19 24 40 56 66 76 81 79 80 71 86 81 60 60 64 69 69 70 78 79 87 94 100 100 100 100 100 100 92 98 100 97 98 100 95 97 93
10 9 8 8 11 11 9 9 9 9 4 3 4 5 8 12 17 23 28 52 60 71 80 78 77 74 81 92 79 63 67 71 75 71 82 92 89 89 100 100 100 100 100 100 100 100 100 100 92 90 87 100 98 90
9 10 8 9 12 12 10 10 10 9 4 4 4 6 9 12 17 24 41 59 66 76 84 81 79 74 85 90 69 76 70 72 78 75 71 76 83 90 91 100 96 100 100 100 100 91 77 78 83 79 74 80 86 94
10 12 9 11 13 13 11 11 14 10 5 4 5 7 10 12 19 26 48 70 76 82 86 88 85 79 84 90 77 72 87 80 75 71 77 85 91 96 100 98 100 100 100 100 100 100 100 86 80 82 77 74 70 69
12 14 11 13 15 15 13 11 16 10 6 5 6 8 9 12 23 34 58 82 76 88 97 91 95 86 87 86 80 84 75 81 93 94 95 91 91 100 97 99 100 100 100 100 100 100 100 100 100 100 100 100 99 89
16 16 13 14 16 17 15 13 18 12 6 6 7 10 13 17 27 41 78 87 83 88 98 98 98 95 79 96 91 92 80 77 94 100 100 91 92 100 100 100 100 100 100 100 100 99 98 98 99 99 100 100 100 100
18 19 15 15 18 19 18 16 21 17 8 7 9 12 14 22 30 48 86 95 92 88 97 96 94 100 92 89 99 99 98 92 91 91 96 100 99 100 100 96 81 77 84 99 100 100 100 98 94 92 98 100 100 99
21 21 17 16 20 21 22 22 23 24 12 9 10 12 16 27 38 53 100 92 98 96 89 95 94 99 100 94 90 100 100 98 96 84 85 97 87 85 92 90 92 97 94 94 98 100 100 100 100 88 80 76 73 75
24 24 20 18 20 22 24 40 31 33 18 11 11 14 20 36 51 56 76 91 94 99 95 93 93 90 95 100 100 100 100 100 98 98 97 100 99 97 99 100 97 100 100 100 100 94 95 100 100 100 97 98 100 100
22 26 24 19 21 22 24 49 52 49 32 17 13 14 20 32 58 57 62 90 98 98 97 96 94 91 93 99 100 100 100 100 100 100 97 100 100 100 100 100 100 100 100 100 98 94 95 99 96 93 92 95 91 80
23 29 28 23 22 21 24 36 62 60 53 31 19 15 15 17 31 46 48 60 96 97 94 90 97 95 82 74 78 90 100 100 100 100 100 98 97 100 100 97 96 100 100 100 99 97 97 98 97 93 91 88 87 93
24 31 29 26 22 21 23 29 61 70 66 54 31 20 16 19 16 16 27 40 60 94 93 92 94 96 99 93 86 76 82 72 77 88 100 100 100 100 100 100 100 100 100 98 95 92 92 92 94 92 91 90 90 98
29 30 29 28 23 22 22 25 43 70 70 77 66 37 22 19 20 20 13 16 30 50 80 98 97 100 100 100 100 92 81 71 73 77 83 84 90 100 100 100 100 100 100 100 97 85 79 77 80 89 93 95 93 91
31 30 29 28 25 24 23 24 29 51 73 78 78 77 48 29 24 21 20 22 17 21 34 68 86 100 100 96 98 100 98 91 86 81 83 92 95 97 100 100 100 100 100 100 100 98 97 97 97 97 96 95 95 97
29 30 28 29 27 25 24 24 26 34 56 75 80 76 78 73 54 33 26 24 21 23 22 26 56 94 100 98 97 99 96 97 98 91 82 82 89 92 92 94 97 100 99 94 94 97 100 100 100 99 96 94 95 95
29 28 27 29 28 26 25 25 26 29 39 58 76 83 84 80 75 67 61 48 32 30 22 23 33 36 54 74 85 95 98 100 100 100 99 100 92 86 89 91 92 92 90 86 86 92 100 100 100 98 98 97 95 95
27 27 26 29 27 25 26 26 26 26 34 47 63 73 80 85 86 86 78 65 58 50 40 31 26 20 25 30 31 44 70 88 97 99 100 100 100 97 97 97 99 99 98 93 89 90 95 97 97 98 97 96 99 100
26 26 27 28 29 30 29 25 26 26 28 41 58 70 75 78 85 92 89 77 63 55 48 47 46 35 28 23 17 20 26 36 58 90 98 100 100 100 100 100 100 100 100 100 96 93 96 98 95 96 98 100 99 99
24 26 27 30 30 30 26 26 26 26 27 38 53 65 72 73 79 86 86 79 72 64 50 38 34 34 35 27 22 19 15 18 24 40 66 91 100 100 100 100 100 100 100 100 97 96 99 99 99 99 100 96 96 99
25 26 29 30 28 27 26 25 26 26 26 34 46 53 62 68 72 76 75 70 66 56 43 33 26 24 23 23 21 17 18 18 14 19 31 58 77 85 96 98 100 100 100 100 100 100 100 100 100 100 100 92 88 93
25 28 29 32 30 26 26 26 25 25 27 33 43 50 57 64 68 64 62 56 44 37 29 22 17 15 14 15 16 15 14 17 19 16 14 20 38 69 85 88 98 99 98 99 100 100 100 100 100 100 97 87 89 91
24 28 30 27 27 26 25 24 24 26 29 36 39 44 52 58 58 51 43 32 22 16 14 12 11 11 10 10 12 13 13 14 17 18 15 12 15 24 43 74 94 90 87 90 92 95 98 99 100 94 88 88 89 91
25 27 27 27 27 27 26 26 27 28 32 36 43 52 52 47 44 36 23 14 11 10 8 8 7 7 6 7 7 8 10 12 15 18 16 15 14 15 21 34 48 54 63 69 72 78 85 90 87 78 79 87 89 88
26 27 28 27 26 26 26 26 27 31 38 45 48 45 40 34 25 16 12 10 8 6 4 4 4 4 4 4 5 5 7 10 12 14 14 15 16 16 21 24 25 37 54 60 67 67 72 75 65 64 70 76 79 79
27 27 26 24 24 24 26 27 29 35 42 50 48 38 30 20 14 11 9 7 5 3 3 3 3 3 3 3 4 4 6 8 9 11 12 12 14 17 19 20 24 30 36 42 51 52 44 40 45 52 58 63 65 62
24 23 25 26 25 26 27 34 44 52 57 51 40 34 20 14 12 10 7 4 3 3 4 4 3 3 3 3 4 4 4 6 7 8 9 10 12 14 14 19 24 28 33 31 29 28 32 37 43 49 51 50 48 46
24 25 26 25 26 30 42 56 62 61 57 46 36 21 14 14 11 7 5 4 4 4 4 4 3 4 4 3 4 4 4 5 6 7 7 7 9 11 12 14 17 18 20 27 31 31 30 28 28 30 32 34 34 32
25 26 26 28 37 52 60 66 64 63 53 36 22 15 15 13 8 5 4 4 4 5 5 4 4 4 4 4 4 4 4 5 6 6 6 7 8 8 8 9 12 14 15 17 19 20 21 22 22 22 22 22 21 22

GFSWCAN_250_rhum_048.txt.gz
RH
11 10 11 10 10 10 9 7 7 8 8 9 11 5 4 4 4 8 10 10 11 12 14 14 15 16 17 20 25 27 40 57 76 79 88 92 99 98 93 100 90 87 92 98 85 93 90 88 97 100 100 100 100 100
10 10 11 11 10 9 8 7 7 8 8 9 9 5 4 4 5 9 10 12 12 13 15 16 17 18 19 21 22 26 34 45 60 70 62 63 69 69 83 80 97 96 87 94 98 98 87 94 92 100 100 99 100 100
11 11 11 12 10 9 8 7 8 8 8 9 7 4 4 4 6 9 10 12 13 14 17 17 20 22 22 23 25 28 30 32 34 35 34 44 52 52 65 98 92 88 85 84 100 98 97 100 100 100 100 100 100 100
10 10 10 11 9 8 8 8 7 8 8 10 6 4 4 4 6 10 12 13 15 14 17 22 26 28 37 51 52 49 47 50 50 53 53 63 72 73 97 92 85 82 96 100 100 99 99 100 95 94 100 99 100 100
10 10 10 11 8 8 9 8 7 8 9 10 5 4 4 4 8 12 14 15 18 24 25 32 46 73 90 86 75 64 55 51 40 31 26 27 45 82 100 100 95 90 100 100 100 96 66 90 98 78 78 85 96 100
10 9 9 11 8 8 10 9 8 9 9 10 5 4 4 5 10 14 14 17 24 34 45 64 75 92 88 76 62 50 48 39 36 30 27 33 50 79 96 98 88 93 100 100 98 77 100 94 67 83 84 87 95 100
9 9 10 11 9 9 12 9 9 9 10 9 4 4 4 6 11 14 16 23 32 49 66 68 90 89 92 79 56 52 56 58 52 46 56 63 67 70 76 92 84 94 100 100 100 100 97 83 100 100 99 100 100 100
9 10 11 12 10 10 13 10 10 9 11 8 4 4 5 7 13 18 23 29 45 59 68 81 91 94 86 83 75 63 67 68 70 72 81 86 86 95 98 100 100 100 100 100 100 96 95 98 99 93 98 97 94 89
9 11 13 13 11 10 15 12 11 11 13 8 5 4 6 10 17 22 27 40 51 67 72 89 91 99 92 93 70 69 75 80 78 88 99 92 100 100 100 100 100 100 100 96 100 99 100 98 92 88 94 85 79 79
10 14 17 13 13 12 17 14 12 14 17 9 6 5 9 14 22 25 32 45 60 70 76 86 97 100 92 100 92 83 80 84 82 81 79 81 83 99 88 90 94 98 95 100 100 100 100 100 100 100 100 100 100 100
11 18 18 15 14 14 18 17 13 16 21 11 7 7 12 17 23 33 38 47 62 70 76 87 98 100 99 97 100 98 91 84 84 82 78 78 100 97 99 93 96 98 100 100 100 100 99 100 95 92 97 94 91 90
14 20 19 18 15 17 19 19 14 18 26 17 9 9 12 21 28 36 47 52 68 72 76 87 98 100 99 95 95 99 99 94 84 85 84 85 93 89 91 96 100 100 100 100 100 100 100 100 100 100 100 99 94 92
16 23 21 20 17 20 20 20 16 18 30 25 11 10 14 23 31 40 41 61 73 80 78 93 96 98 100 100 95 97 100 98 93 89 82 87 95 99 100 100 100 100 100 100 100 99 100 100 100 100 100 100 100 100
22 27 22 24 20 23 21 22 18 20 30 43 19 12 14 22 31 36 40 56 79 90 91 91 99 97 99 100 100 100 92 91 88 92 92 90 91 100 97 92 98 96 92 93 98 100 100 100 100 100 100 100 100 92
27 28 22 25 23 25 22 24 22 21 25 37 36 18 14 15 17 30 42 57 69 93 100 99 98 96 90 92 98 100 100 99 92 89 86 87 85 87 88 89 92 97 99 100 100 100 97 100 100 100 98 96 98 100
29 27 24 26 26 26 24 26 26 24 22 35 51 37 23 17 15 14 24 44 69 72 84 98 100 99 98 88 82 87 91 94 99 100 100 100 97 92 92 94 99 100 100 100 100 98 98 99 99 93 91 91 87 83
28 29 26 28 30 28 25 27 26 29 30 35 44 56 45 29 20 17 20 23 38 62 78 82 95 100 100 100 96 79 67 67 80 97 100 100 99 96 96 98 100 100 100 100 100 100 99 92 86 82 79 83 90 84
26 29 31 30 30 30 27 27 25 27 34 47 59 50 58 55 37 24 17 19 26 32 48 70 65 83 99 100 100 100 99 90 70 65 78 94 100 100 99 100 100 100 100 100 100 100 100 100 99 95 89 85 83 86
24 28 30 30 31 33 30 27 26 26 29 37 59 73 65 62 59 52 33 22 18 19 30 36 42 69 88 96 90 98 100 100 100 99 91 87 95 97 97 97 97 100 100 100 100 97 95 91 87 85 86 90 95 100
27 26 32 33 32 34 33 27 25 25 28 28 34 60 87 76 67 61 60 50 33 22 19 25 39 44 47 56 69 77 94 95 92 97 100 100 99 100 100 100 100 100 100 100 100 100 100 99 99 100 100 100 100 100
26 28 32 32 34 34 34 29 26 24 24 27 29 35 55 81 84 78 69 62 58 52 39 29 23 21 26 41 44 42 52 74 97 91 84 88 93 98 100 100 99 99 100 100 100 100 100 100 100 100 100 100 100 100
25 29 30 32 34 35 34 30 27 24 24 25 26 28 35 46 65 79 80 75 72 70 68 61 58 52 36 28 26 28 42 54 65 72 75 86 87 88 89 87 90 97 99 100 99 98 100 100 100 100 100 100 100 99
27 28 29 30 32 33 31 30 30 25 23 23 24 26 27 30 38 53 66 77 83 81 81 82 77 72 68 60 52 41 32 24 24 32 41 63 80 78 80 87 91 93 89 87 88 90 92 97 100 100 100 100 100 100
27 27 26 29 31 30 29 30 30 25 23 23 23 24 26 27 28 34 42 50 68 79 80 81 80 75 74 72 67 62 58 53 45 33 29 24 28 39 53 76 86 92 94 95 95 95 95 92 91 91 93 92 89 90
26 25 28 30 29 27 28 30 27 26 24 22 23 25 27 27 28 33 39 47 55 59 64 63 62 63 61 59 60 60 55 58 60 52 36 32 30 28 25 30 38 62 90 97 98 97 96 96 98 98 96 94 96 96
25 27 28 27 26 28 32 29 28 26 22 22 24 25 27 28 27 29 37 40 41 41 43 49 51 49 46 49 44 32 31 33 34 39 30 27 24 25 26 25 27 31 51 75 89 95 96 98 99 100 100 100 100 96
24 24 24 24 27 29 30 30 28 23 22 22 23 26 27 28 30 34 37 38 38 40 44 45 46 47 39 25 20 14 11 12 14 16 16 17 18 18 20 24 28 29 30 47 73 84 91 94 98 98 100 100 98 97
22 23 24 26 28 28 28 26 24 23 23 25 26 26 25 26 30 35 36 37 40 40 41 40 31 19 13 11 10 9 7 8 9 10 10 12 14 16 18 19 24 28 29 28 37 61 80 88 95 100 100 97 95 94
22 25 27 26 26 27 25 24 23 22 24 26 26 26 25 27 31 34 40 45 41 34 22 14 12 10 8 7 6 5 4 5 6 6 8 10 12 14 15 17 19 23 26 28 30 36 54 76 84 89 91 91 89 83
25 25 24 27 28 26 24 24 23 23 24 25 26 26 28 35 43 45 41 34 22 14 12 10 8 6 4 4 3 3 3 3 4 4 5 6 8 9 12 15 17 19 23 26 29 36 44 50 58 64 69 69 68 71
24 24 26 27 26 26 24 22 22 22 25 26 26 34 47 46 39 37 29 18 13 11 8 6 4 4 3 3 3 3 3 3 3 3 4 4 6 8 11 12 15 17 23 28 32 38 43 39 35 36 39 43 48 52
25 25 23 23 23 22 21 23 24 26 25 28 42 53 48 37 34 25 18 13 10 8 5 4 4 4 4 4 4 3 3 3 3 3 4 4 5 6 9 12 14 17 21 26 32 33 31 28 25 28 37 41 40 39
22 22 22 22 21 22 23 26 26 25 29 46 52 49 38 37 27 19 16 13 8 5 5 5 4 5 5 5 4 4 4 4 4 4 4 4 5 6 7 9 11 13 14 16 20 21 22 21 27 36 40 37 32 28

GFSWCAN_250_rhum_051.txt.gz
RH
8 9 9 8 8 9 8 9 8 8 8 8 8 10 12 5 4 6 7 9 11 11 11 11 12 14 17 25 33 58 74 88 100 99 94 96 98 100 100 100 100 100 100 100 100 100 100 76 77 66 100 96 99 92
9 9 9 8 9 9 9 9 8 8 8 7 8 10 12 4 4 6 8 10 11 12 12 13 13 14 15 18 22 30 46 64 79 87 85 82 86 95 96 100 100 100 100 96 92 100 96 91 96 81 74 99 99 100
9 9 8 8 8 9 8 9 8 7 8 7 8 11 9 4 4 6 9 11 11 12 13 16 16 17 18 19 20 24 28 37 49 70 72 73 80 84 90 97 100 100 98 96 100 84 88 80 98 96 100 100 91 99
9 9 8 8 9 9 8 9 8 7 8 7 9 12 6 4 5 7 11 12 13 15 14 16 18 19 19 21 24 26 31 34 40 48 60 67 66 72 85 98 100 96 95 100 94 82 74 98 100 100 100 100 88 80
8 8 9 8 9 9 8 10 8 8 8 7 10 12 5 4 5 8 11 12 15 16 17 19 22 25 26 26 26 26 27 28 29 32 38 44 57 71 76 74 77 96 98 80 88 87 100 100 98 98 91 77 75 83
8 9 10 9 9 9 9 10 8 9 8 8 11 10 4 4 6 9 12 15 18 20 23 26 39 46 50 54 51 53 62 61 53 48 42 45 43 52 65 87 98 100 85 77 84 93 85 82 79 95 73 70 80 86
9 9 9 9 9 10 9 11 8 9 8 9 12 7 4 5 7 11 15 18 22 25 35 63 74 86 86 84 76 66 54 47 44 35 32 38 61 77 100 98 98 91 99 92 78 88 91 90 100 97 94 100 99 92
9 9 10 9 10 11 10 12 9 9 9 11 12 6 4 7 10 16 18 21 28 39 76 85 83 81 76 64 61 61 54 44 43 32 28 29 73 100 100 100 97 97 89 94 90 88 100 93 69 71 92 100 90 91
9 10 10 9 12 13 11 12 11 10 10 12 11 6 5 9 14 17 19 26 37 70 91 89 92 88 68 63 68 72 66 60 50 60 63 72 98 100 100 100 83 90 100 87 98 99 87 68 95 100 100 100 99 97
9 10 10 10 16 15 11 14 13 11 12 13 12 6 6 10 17 20 24 28 47 94 93 95 98 96 80 77 75 80 79 82 80 84 86 92 100 100 100 100 100 94 88 91 100 86 95 100 99 100 100 100 100 100
9 9 10 13 19 15 12 16 15 14 14 14 16 8 9 12 19 26 28 35 62 91 89 98 99 100 97 89 80 84 94 91 94 92 94 96 94 100 100 100 91 94 97 100 100 100 100 95 100 100 100 100 100 100
9 10 10 18 20 17 14 18 17 19 17 16 19 12 12 12 16 25 34 42 66 93 95 99 100 100 100 100 97 92 85 82 86 82 91 98 95 98 98 99 99 99 97 98 100 100 100 100 100 100 98 92 91 93
10 11 13 20 23 18 16 21 22 24 19 17 23 21 12 14 17 27 39 48 71 89 100 100 100 100 100 100 100 100 93 95 86 79 83 81 84 82 87 92 94 88 98 100 100 100 100 100 100 100 98 95 95 94
11 12 15 23 28 18 19 22 27 25 21 18 26 31 18 17 18 25 39 58 81 91 98 100 100 100 100 100 100 99 99 100 99 94 89 87 84 83 78 77 86 99 100 100 98 95 94 98 97 94 95 94 92 91
12 14 18 27 28 20 23 24 30 26 22 21 29 40 32 18 17 21 30 48 80 100 99 100 100 100 100 100 100 98 100 97 100 99 100 100 96 94 92 89 98 93 85 83 86 92 98 98 94 92 93 93 92 91
13 16 23 34 28 21 25 26 29 28 24 21 30 47 49 37 21 21 27 38 56 91 100 100 100 100 100 100 100 100 100 100 100 100 100 100 100 100 100 100 95 90 95 99 98 97 92 95 98 99 95 93 96 99
14 19 29 35 24 23 27 30 30 29 26 22 24 38 62 64 43 22 23 32 32 48 73 96 100 100 100 100 100 98 99 96 100 100 98 100 100 100 98 95 96 95 94 93 93 93 97 97 96 98 100 100 100 100
16 21 35 37 31 26 27 33 31 30 28 26 23 27 38 61 69 56 30 23 27 39 36 40 74 97 100 100 100 99 99 99 94 93 95 98 100 100 100 100 98 93 90 90 93 98 100 100 97 95 94 94 94 91
17 22 31 37 31 28 30 36 32 31 31 31 27 25 27 38 57 71 67 42 27 23 22 35 42 44 78 95 94 97 96 97 100 100 96 96 99 99 96 92 93 94 95 95 94 96 99 100 100 100 100 99 94 88
17 21 26 31 29 30 32 36 32 31 31 31 32 32 29 29 34 46 64 74 64 41 25 24 22 43 48 48 56 69 84 89 94 100 100 100 99 100 100 100 100 100 100 100 100 100 98 99 100 100 100 98 95 96
18 22 26 28 30 29 32 33 31 32 32 30 30 34 34 32 31 34 39 50 71 75 71 54 31 24 26 20 31 55 60 63 73 82 83 96 99 98 100 100 100 100 100 100 100 100 100 100 100 100 100 97 96 98
20 22 24 26 28 29 32 31 31 33 31 28 28 29 33 34 34 33 35 38 40 57 73 77 75 67 53 35 25 27 25 22 34 57 67 74 74 79 84 90 94 97 100 99 99 99 100 100 100 100 100 100 100 100
19 21 24 24 26 29 31 29 31 33 32 29 27 26 28 30 33 33 33 34 37 40 44 53 69 75 78 73 64 57 48 34 27 22 22 28 38 56 71 75 76 78 79 80 83 90 95 99 100 100 100 100 100 100
19 20 21 23 26 29 28 28 31 32 30 28 26 24 24 25 28 31 32 32 31 32 34 38 44 50 56 58 62 66 68 68 63 58 50 41 33 27 21 21 30 45 60 69 73 76 81 84 82 81 84 90 95 99
18 17 20 24 27 27 26 27 29 30 28 28 26 24 23 22 23 25 26 27 29 30 31 34 37 37 37 38 46 50 52 55 60 65 60 61 64 64 62 59 52 42 30 26 28 45 61 74 75 76 81 87 88 90
18 20 23 25 24 25 26 26 27 26 27 28 26 24 23 22 23 25 25 25 26 27 27 28 28 28 29 32 35 37 41 48 52 52 44 45 49 52 52 56 65 74 69 57 48 38 31 30 34 47 62 80 93 96
20 24 24 24 24 26 25 25 25 26 27 28 25 24 22 21 23 25 26 26 27 27 27 26 24 22 23 28 35 41 41 40 40 44 46 46 46 47 47 43 43 50 52 59 66 66 58 44 38 32 32 39 52 70
22 22 22 24 25 25 25 24 25 25 26 26 25 22 21 22 24 27 27 28 28 27 26 24 24 24 31 40 42 41 34 30 26 21 18 16 14 15 18 20 21 24 25 30 40 48 56 62 54 45 40 36 43 52
22 23 23 23 23 24 24 24 25 26 26 25 24 22 22 23 24 27 27 26 26 25 22 22 34 46 47 39 27 19 14 11 10 9 8 8 8 8 9 11 13 15 17 20 23 31 38 44 50 50 46 42 40 46
22 21 21 22 23 23 23 24 25 26 25 23 23 22 23 24 26 26 26 25 23 24 35 47 45 34 24 17 13 11 9 7 6 5 4 4 4 4 4 6 8 10 13 16 18 23 28 34 38 46 49 47 43 41
20 20 20 21 21 22 23 25 25 23 21 22 22 24 25 26 24 26 26 27 34 43 46 40 26 18 13 11 8 6 5 4 3 3 3 3 3 3 3 4 4 6 9 13 17 21 28 34 36 40 43 40 38 38
19 19 20 21 22 24 26 26 24 22 21 22 23 25 26 25 25 25 34 42 43 44 37 23 16 13 10 6 5 4 4 4 4 4 4 4 4 4 3 4 4 5 7 11 14 19 25 31 31 29 33 36 36 34
20 20 21 22 24 26 27 26 24 22 22 23 24 26 25 24 26 32 38 41 39 33 22 15 12 8 6 5 5 4 4 5 5 5 4 4 3 3 4 4 4 5 6 9 12 16 20 22 26 30 33 33 31 30

GFSWCAN_250_rhum_054.txt.gz
RH
8 9 8 8 8 9 9 8 8 9 8 8 7 7 7 9 11 6 5 7 10 11 11 12 13 16 24 42 54 59 80 97 98 98 91 81 85 89 95 100 100 100 100 100 100 100 98 100 92 82 72 100 94 99
8 8 8 8 8 9 8 8 8 8 8 8 7 8 7 10 10 5 5 7 11 12 14 14 14 15 19 29 38 43 56 81 89 94 92 94 88 88 89 94 99 100 100 100 100 100 98 100 100 92 86 82 90 100
9 9 8 8 9 9 8 8 8 8 8 8 7 8 8 10 9 5 5 8 11 12 13 15 16 15 17 20 29 35 41 60 81 84 90 89 87 91 96 99 100 100 100 100 100 100 100 98 100 77 92 86 99 86
8 9 8 8 9 8 8 8 8 8 8 8 7 8 8 10 8 4 6 9 11 12 14 16 17 18 17 17 19 23 33 40 65 72 81 93 91 88 90 100 100 100 100 100 100 97 100 97 90 94 99 89 100 92
8 7 7 8 8 8 9 7 9 8 8 8 7 8 8 10 7 4 6 10 12 13 15 16 17 19 21 22 22 22 24 28 36 47 60 78 87 91 88 99 100 100 100 100 96 100 100 91 91 98 98 100 81 68
7 6 7 7 7 8 8 8 9 7 8 7 7 8 9 9 5 5 7 12 14 16 20 21 22 22 23 24 25 26 28 28 29 31 35 46 53 74 93 99 100 100 100 99 100 93 89 100 87 100 100 78 60 91
6 6 6 6 7 7 7 9 8 7 7 7 8 8 9 8 5 6 13 14 16 21 24 24 26 26 26 27 28 30 30 31 31 31 32 35 44 58 79 92 98 97 91 98 90 92 88 90 87 94 93 78 82 94
5 5 6 6 7 7 8 9 7 7 7 7 9 8 9 7 6 8 12 15 21 27 30 37 48 57 70 77 69 65 58 51 47 46 44 39 38 40 51 69 71 81 96 97 88 78 82 74 83 100 99 75 80 96
5 5 6 6 7 7 10 9 7 8 8 8 9 9 10 8 6 10 14 19 27 36 45 63 85 92 84 73 62 55 50 45 38 32 29 39 61 48 58 64 94 100 100 97 78 77 75 88 100 93 73 96 95 99
5 6 6 7 8 9 12 9 8 10 8 10 10 9 14 8 8 12 18 24 36 45 67 87 96 84 66 71 71 71 64 58 51 42 32 47 87 77 87 95 100 100 91 100 84 74 96 100 92 82 97 100 96 96
6 6 7 8 9 10 15 9 10 11 11 12 12 13 14 11 10 15 21 29 52 70 85 98 100 81 74 85 76 79 80 69 62 77 89 97 100 100 100 100 100 100 98 100 80 88 100 94 100 99 100 100 100 100
6 7 8 9 9 12 18 10 12 12 13 14 15 15 18 10 12 19 26 34 68 91 98 100 100 93 87 88 88 87 83 79 80 91 98 100 100 100 100 100 100 100 98 83 71 100 100 100 100 98 100 100 100 100
7 8 9 10 10 16 19 11 14 15 17 16 16 17 21 16 15 20 32 38 77 97 100 100 99 96 99 99 95 93 93 97 91 95 100 100 100 100 100 100 100 95 78 80 98 100 99 100 95 93 100 100 100 99
8 9 10 11 12 21 20 15 15 18 18 19 18 18 26 21 14 18 32 41 64 100 100 100 100 100 98 100 100 96 100 99 95 92 93 96 91 99 100 100 91 84 83 96 97 83 100 100 93 96 92 94 100 97
10 10 12 13 15 23 22 18 18 21 23 22 20 19 21 28 18 21 26 36 54 89 100 100 100 100 100 99 99 100 100 100 99 93 90 88 86 92 96 96 97 99 96 94 83 94 99 86 91 98 96 93 97 94
12 12 14 16 18 27 23 21 19 23 26 27 23 22 22 32 36 18 24 33 46 72 100 100 100 100 100 100 97 99 100 100 100 100 99 96 91 90 84 83 80 80 83 83 92 100 100 100 93 88 99 100 100 100
14 15 16 17 23 26 27 23 21 26 26 30 26 24 22 28 40 44 20 23 35 50 78 100 100 100 100 100 99 94 98 100 100 100 100 100 100 100 99 100 100 100 99 100 100 100 97 91 96 100 100 100 99 98
16 17 18 18 24 30 25 24 22 24 28 32 29 27 23 24 30 46 55 28 20 34 49 71 89 96 100 100 100 100 99 96 97 100 100 100 100 100 100 100 100 100 100 100 100 100 99 92 92 95 99 100 100 97
17 18 19 20 27 30 29 28 26 28 31 33 31 30 25 26 26 33 51 62 50 25 25 38 58 81 90 93 87 97 100 100 100 100 100 100 100 100 100 100 100 100 100 100 100 100 100 100 100 100 100 100 100 100
18 19 20 21 26 36 34 29 27 30 32 31 32 32 30 26 27 27 32 46 69 70 55 32 26 31 34 50 71 75 86 98 100 100 100 100 100 100 100 100 100 100 100 100 100 100 100 100 100 100 100 100 100 100
18 18 19 21 25 31 31 29 29 30 32 33 33 32 31 28 27 28 29 29 35 45 74 78 68 46 28 23 26 33 42 66 83 92 97 100 99 94 96 100 100 99 98 99 100 100 100 100 100 99 98 99 100 100
16 18 20 21 24 32 33 28 27 29 30 33 32 32 32 32 29 27 26 28 27 29 38 49 64 76 77 71 53 32 23 24 31 44 69 86 94 98 99 98 100 100 100 100 99 99 100 100 100 100 100 100 100 100
17 17 19 20 22 26 29 26 26 26 28 31 31 31 30 30 31 30 29 28 29 30 28 28 34 43 52 64 74 74 69 60 43 29 24 27 34 48 70 86 90 93 94 93 93 95 99 99 96 93 94 98 98 99
18 19 19 19 22 24 25 24 24 25 28 29 30 31 30 28 28 29 28 28 29 28 27 26 26 26 27 29 32 41 57 70 67 62 63 62 53 36 26 26 35 45 57 65 73 84 87 84 80 80 83 87 92 98
18 18 20 21 22 22 23 22 23 25 26 27 30 32 28 28 30 28 27 26 28 30 32 33 30 26 25 24 24 24 26 31 36 40 44 56 60 61 64 65 62 55 40 28 26 29 37 50 61 68 69 76 81 89
18 19 20 21 21 21 21 21 22 24 24 26 28 28 26 27 28 29 24 24 24 25 28 29 28 26 26 25 24 24 24 24 25 25 24 27 29 35 42 49 56 63 64 66 67 60 51 46 40 36 39 40 40 41
19 21 21 21 20 19 20 21 22 24 25 26 26 26 26 27 27 26 25 23 21 23 25 24 24 23 23 23 24 23 23 23 24 24 24 27 30 32 36 38 38 36 39 51 61 68 73 79 80 78 78 82 85 81
21 21 20 19 18 18 19 21 23 24 25 24 24 23 25 26 26 27 24 22 22 23 24 24 24 22 22 21 21 20 20 23 26 32 38 37 35 35 36 38 37 35 36 35 39 45 53 64 74 83 87 87 88 89
20 19 18 17 17 18 19 20 21 23 23 22 22 24 25 24 27 25 23 22 22 24 25 24 23 22 21 21 20 22 33 42 44 36 29 26 19 14 14 14 13 13 15 18 22 27 32 39 49 57 67 77 81 85
17 17 16 15 16 19 20 21 21 21 21 22 24 24 23 24 23 22 21 21 23 24 24 22 22 21 20 22 33 39 40 41 33 20 13 10 9 8 7 7 7 6 7 9 11 14 16 19 26 33 38 48 60 78
16 14 14 16 19 20 20 21 21 22 23 22 22 23 22 21 20 20 21 24 23 21 20 20 20 20 26 37 39 38 26 16 13 10 8 6 5 4 4 4 4 4 4 4 5 7 9 12 16 20 24 28 37 47
14 16 18 20 20 21 21 21 22 22 22 23 22 22 21 20 20 22 24 24 21 22 22 21 21 28 37 41 37 26 16 11 8 6 5 4 4 4 4 4 4 4 4 4 4 5 5 7 9 13 18 23 27 28
16 19 20 20 20 20 20 22 22 22 22 22 21 21 21 22 22 23 22 22 22 22 22 24 34 40 40 30 20 14 11 8 5 4 4 4 4 5 5 4 4 4 4 4 4 5 5 6 9 11 13 16 18 21